Portada
METAR-TAF:

METAR-TAF

Aeropuertos :

Aeropuerto Santiago Pérez Quiroz

Arauca, Colombia

latitud: 07-04N, longitud: 070-44W, altitud: 128 m

Observación

El informe se hizo hace 6 horas y 15 minutos, a las 02:00 UTC
Viento calma
Temperatura 28°C
Humedad 58%
Presión 1012 hPa
Visibilidad: 9000 m
Escasas nubes a una altura de 2300 ft

METAR: SKUC 180200Z 00000KT 9000 FEW023 28/19 A2987 RMK FU

Hora: 03:15 (08:15 UTC)


TAF: falta

Observaciones y pronósticos meteorológicos de más de 4000 aeropuertos (mensajes METAR y TAF).

Los puntos amarillos y rojos representan las estaciones disponibles.

Ponga el ratón en el punto deseado para ver el nombre de la estación.

Haga clic para ver las observaciones y los pronósticos meteorológicos.

Para cambiar el mapa : haga clic en los botones verdes con una cruz de color negro para hacer un zoom, en el botón verde con un guión para alejar o en las flechas verdes para mapas adyacentes.


METAR-TAF: